Location: Moscow
(55.7500°N, 37.5830°E)
Time: 06:50:14
(UTC+03:00)

Transit 2A - Pass Details

Date: 05 December 2021
Orbit: 591 x 967 km, 66.7° (Epoch: 17 January)

Event Time Altitude Azimuth Distance (km) Brightness Sun altitude
Exits shadow 06:24:32 19° 324° (NW) 2,121 7.8 -17.8°
Maximum altitude 06:28:40 40° 24° (NNE) 1,390 7.4 -17.2°
Drops below altitude 10° 06:34:39 10° 93° (E) 2,692 10.1 -16.4°
Sets 06:37:21 0° 101° (E) 3,611 11.3 -16.0°
